Lid_Strength_Index
3 2 2 1 1 1 1 1 1 0 0 1 1 1 1 0 0 -0 -1 -2 -2 -2 -2 -1 -1 -1 0 -0 -0 -0 0 1 0 1 1 1 0 0 0 -0 -0 -1 -1
4 3 2 2 1 1 1 1 1 1 0 0 0 0 0 -0 -0 -1 -1 -2 -2 -2 -1 -1 -1 -1 0 -0 -0 0 1 1 0 2 2 4 2 1 0 -0 -0 -0 -1
4 4 3 2 2 2 1 1 1 1 0 -0 0 0 -0 0 0 0 0 -1 -2 -2 -1 -1 -1 -1 -0 0 -0 0 1 2 1 0 2 5 5 3 1 1 0 -0 0
4 3 3 3 2 2 1 1 1 1 0 -0 0 0 1 2 1 1 0 -0 -1 -1 -2 -1 -1 -1 -1 0 -0 -0 0 1 2 1 0 0 1 4 5 2 1 0 0
4 4 3 2 2 1 1 1 1 1 0 0 0 1 1 1 0 0 1 0 -1 -1 -1 -2 -1 -0 -1 -1 -0 -1 0 1 1 1 1 1 1 1 3 5 3 1 1
4 3 3 2 2 1 1 1 1 1 1 0 0 1 1 1 1 1 1 1 0 -0 -1 -1 -1 -1 -0 -0 -0 -1 -1 -0 0 1 1 2 2 3 3 4 3 3 2
4 3 3 3 2 2 2 1 1 2 1 1 1 1 1 1 1 1 1 1 1 1 0 -0 -0 -0 -1 -1 -1 -1 -0 -0 1 0 1 1 1 1 2 2 3 3 2
4 3 3 3 3 2 2 2 2 2 1 1 1 1 0 1 1 0 0 0 1 0 -0 -0 -0 -1 -1 -1 -1 -0 -0 -0 0 0 0 1 1 0 1 2 3 4 3
4 4 3 3 3 2 2 2 2 2 1 1 1 1 1 1 1 0 -0 0 -0 -0 -0 -0 -0 -0 -0 -1 -0 0 0 -0 -0 0 0 1 0 0 0 0 1 3 5
5 3 3 3 2 2 2 1 1 2 1 1 1 1 1 1 0 0 0 0 -0 -1 0 0 0 -0 -0 -0 -0 0 -0 0 0 0 0 0 0 0 0 0 1 1 3
5 4 3 3 2 2 2 2 2 2 2 1 1 1 1 1 0 1 0 0 -0 -0 -0 -0 -0 0 0 -0 0 0 0 1 1 0 0 1 0 1 1 0 1 1 1
5 5 3 3 2 2 2 2 2 2 1 1 1 1 1 1 1 1 0 0 0 -0 -0 -0 0 0 0 -0 0 1 0 1 1 1 1 1 1 1 0 1 1 1 1
5 5 4 3 3 2 2 2 2 2 1 1 1 1 1 1 1 1 1 0 0 0 0 0 0 0 0 0 0 0 1 1 1 1 1 1 1 1 1 1 1 1 1
3 3 3 3 3 2 2 2 2 1 1 1 1 2 1 1 1 1 1 0 0 1 0 0 0 0 0 0 0 0 1 1 0 0 0 0 1 1 1 1 1 1 1
4 4 4 4 3 3 2 2 2 1 1 2 2 2 1 1 1 1 1 0 0 0 0 0 0 0 0 0 0 0 1 1 1 0 0 0 0 1 1 1 1 1 2
4 4 4 3 4 3 3 2 2 2 1 2 2 1 1 1 1 1 1 1 1 1 1 1 1 1 1 3 3 1 1 1 1 1 1 0 0 1 3 3 3 1 1
4 4 4 3 3 3 3 2 2 1 2 2 2 2 1 2 1 1 1 1 1 1 1 1 1 1 1 4 4 3 0 1 1 1 1 1 0 1 0 2 3 3 4
4 4 3 3 2 2 2 2 1 2 2 2 2 2 2 2 1 1 1 1 1 1 1 1 1 1 1 5 6 4 0 1 1 1 1 1 1 1 0 1 1 1 1
3 3 3 2 2 2 2 2 2 2 2 2 2 2 2 2 2 2 2 1 1 1 1 1 1 1 1 6 7 6 1 1 1 1 0 0 1 2 4 1 1 1 1
3 3 2 2 2 2 2 2 2 2 3 2 2 1 1 2 2 2 2 1 1 1 1 1 1 2 1 6 8 6 1 1 1 1 1 4 1 4 5 1 1 2 2
2 2 2 3 2 3 2 3 3 3 2 1 1 1 1 1 1 1 1 1 1 1 1 1 1 1 1 1 9 10 1 1 1 1 1 1 6 7 7 7 1 2 1
3 3 3 3 2 3 3 4 3 3 2 1 2 2 1 1 1 1 1 1 2 2 2 2 2 1 1 5 9 11 9 3 1 2 1 1 6 8 8 7 5 5 6
3 3 4 3 3 3 4 5 6 5 4 2 2 2 1 1 1 2 2 2 2 2 2 2 2 2 1 1 9 11 11 9 2 1 2 7 8 10 10 10 8 8 2
4 3 3 3 4 4 7 7 6 5 4 2 2 2 2 2 2 1 2 2 2 2 2 3 3 2 2 1 1 4 7 9 6 5 2 3 5 8 5 3 8 4 1
3 3 3 3 4 4 6 7 7 6 5 2 2 2 2 2 2 2 2 2 1 2 2 2 2 2 2 2 3 3 1 2 4 2 1 1 2 2 2 1 1 1 1
2 3 2 3 4 4 5 7 8 8 7 5 4 2 2 2 2 2 2 13 9 12 12 9 5 4 10 14 15 15 10 10 11 3 2 2 2 2 2 2 2 1 2